Weather History for KLMT - July, 2013

Change the Weather History Date:

Wednesday, July 17, 2013

  Actual Average Record
Temperature  
Mean Temperature 65 °F 67 °F  
Max Temperature 86 °F 85 °F 96 °F (1960)
Min Temperature 44 °F 49 °F 34 °F (2001)
Degree Days  
Heating Degree Days 0 1  
Month to date heating degree days 1 33  
Since 1 June heating degree days 179 250  
Since 1 July heating degree days 1 33  
Cooling Degree Days 0 3  
Month to date cooling degree days 86 36  
Year to date cooling degree days 132 48  
Since 1 June cooling degree days 132 47  
Growing Degree Days 16 (Base 50)    
Moisture  
Dew Point 39 °F    
Average Humidity 44    
Maximum Humidity 80    
Minimum Humidity 13    
Precipitation  
Precipitation 0.00 in 0.01 in 1.14 in (1987)
Month to date precipitation T 0.34  
Year to date precipitation 4.55 9.17  
Sea Level Pressure  
Sea Level Pressure 30.06 in    
Wind  
Wind Speed 3 mph (South)    
Max Wind Speed 13 mph    
Max Gust Speed 22 mph    
Visibility 10 miles    
Events      
T = Trace of Precipitation, MM = Missing Value Source: NWS Daily Summary

Daily Weather History Graph

Daily Weather History Graph

Search for Another Location

Airport or City:

Trip Planner

Search our weather history database for the weather conditions in past years. The results will help you decide how hot, cold, wet, or windy it might be!

Date:

Astronomy

Jul. 17, 2013 Rise Set
Actual Time 5:46 AM PDT 8:39 PM PDT
Civil Twilight 5:12 AM PDT 9:12 PM PDT
Nautical Twilight 4:30 AM PDT 9:54 PM PDT
Astronomical Twilight 3:41 AM PDT 10:43 PM PDT
Moon 3:33 PM PDT (7/17) 12:58 AM PDT (7/17)
Length of Visible Light 15h 59m
Length of Day
14h 53m
Waxing Gibbous, 68% of the Moon is Illuminated
Jul 17
Waxing Gibbous
Jul 22
Full
Jul 29
Last Quarter
Aug 6
New
Aug 14
First Quarter

Hourly Weather History & Observations

Time (PDT) Temp. Dew Point Humidity Pressure Visibility Wind Dir Wind Speed Gust Speed Precip Events Conditions
12:53 AM 54.0 °F 41.0 °F 62% 29.99 in 10.0 mi Calm Calm - N/A   Clear
1:53 AM 50.0 °F 42.1 °F 74% 30.01 in 10.0 mi Calm Calm - N/A   Clear
2:53 AM 48.0 °F 42.1 °F 80% 30.02 in 10.0 mi NE 4.6 mph - N/A   Clear
3:53 AM 48.0 °F 42.1 °F 80% 30.03 in 10.0 mi Calm Calm - N/A   Clear
4:53 AM 48.0 °F 43.0 °F 83% 30.05 in 10.0 mi Calm Calm - N/A   Clear
5:53 AM 46.0 °F 39.0 °F 76% 30.08 in 10.0 mi Calm Calm - N/A   Clear
6:53 AM 50.0 °F 41.0 °F 71% 30.09 in 10.0 mi Calm Calm - N/A   Clear
7:53 AM 55.9 °F 39.9 °F 55% 30.11 in 10.0 mi SSE 4.6 mph - N/A   Clear
8:53 AM 62.1 °F 43.0 °F 50% 30.12 in 10.0 mi South 3.5 mph - N/A   Clear
9:53 AM 66.9 °F 42.1 °F 40% 30.11 in 10.0 mi Calm Calm - N/A   Clear
10:53 AM 72.0 °F 42.1 °F 34% 30.09 in 10.0 mi Calm Calm - N/A   Clear
11:53 AM 75.9 °F 37.9 °F 25% 30.09 in 10.0 mi Variable 4.6 mph - N/A   Clear
12:53 PM 78.1 °F 35.1 °F 21% 30.10 in 10.0 mi East 3.5 mph - N/A   Clear
1:53 PM 81.0 °F 35.1 °F 19% 30.09 in 10.0 mi SW 8.1 mph - N/A   Clear
2:53 PM 82.0 °F 28.0 °F 14% 30.08 in 10.0 mi SW 4.6 mph - N/A   Clear
3:53 PM 84.9 °F 30.0 °F 14% 30.06 in 10.0 mi Variable 3.5 mph - N/A   Clear
4:53 PM 86.0 °F 30.0 °F 13% 30.05 in 10.0 mi East 3.5 mph - N/A   Clear
5:53 PM 84.0 °F 28.9 °F 14% 30.04 in 10.0 mi East 4.6 mph - N/A   Clear
6:53 PM 84.0 °F 30.0 °F 14% 30.03 in 10.0 mi Calm Calm - N/A   Clear
7:53 PM 82.0 °F 35.1 °F 18% 30.02 in 10.0 mi North 5.8 mph - N/A   Clear
8:53 PM 71.1 °F 45.0 °F 39% 30.04 in 10.0 mi West 6.9 mph - N/A   Clear
9:53 PM 72.0 °F 42.1 °F 34% 30.05 in 10.0 mi NW 8.1 mph - N/A   Clear
10:53 PM 63.0 °F 46.9 °F 56% 30.07 in 10.0 mi SW 3.5 mph - N/A   Clear
11:53 PM 55.9 °F 48.0 °F 75% 30.09 in 10.0 mi Calm Calm - N/A   Clear